{"data":{"norad_id":60275,"intl_designator":"2024-131W","name":"STARLINK-32152","alt_names":[],"object_type":"PAYLOAD","status":"ACTIVE","operator":null,"country":"US","launch_date":"2024-07-27","launch_site_code":"AFETR","launch_vehicle":null,"mission":null,"orbit_class":"UNKNOWN","rcs_meters":null,"size_class":null,"mass_kg":null,"dimensions":null,"purposes":["comms"],"wikipedia_slug":null,"has_3d_model":false,"image_url":null,"decayed_at":null,"tle_current":{"epoch":"2026-05-25T01:18:46.086048Z","epoch_age_seconds":64348,"freshness":"FRESH","line1":"1 60275U 24131W   26145.05470007 -.00000072  00000+0  96774-5 0  9999","line2":"2 60275  53.1605  57.4926 0001108  94.4420 265.6707 15.30192180103319","mean_motion":15.3019218,"eccentricity":0.0001108,"inclination_deg":53.1605,"raan_deg":57.4926,"arg_perigee_deg":94.442,"mean_anomaly_deg":265.6707,"bstar":9.6774e-6,"rev_number":10331,"period_min":94.105826628914,"perigee_km":474.47906463281,"apogee_km":475.99777262558,"semimajor_km":6853.3754186292,"source":"CELESTRAK","updated_at":"2026-05-25T13:38:19.202770Z"}}}